Terug naar catalogus

FENGYUN 1C DEB

ActiefPO
NORAD 37049·DEBRIS·🇨🇳 China

Gelanceerd May 10, 1999 vanaf Taiyuan Satellite Launch Center

Loading…

Volgende Passages (komende 24 uur)

TLE

VersSource: Space-Track

Epoch: Sep 12, 2026, 06:32 UTC

1 37049U 99025EEH 26255.27241114  .00003022  00000-0  88522-3 0  9995
2 37049  99.2459 274.1231 0035203 107.2207 253.2839 14.44383233676832

Volg FENGYUN 1C DEB in realtime met AllMySat

Download on the App Store